Hamilton, OH

3:00 PM EDT on May 21, 2018 (GMT -0400)
Butler County Regional

Weather History for KHAO - March, 2013

Change the Weather History Date:

Monday, March 18, 2013

  Actual Average (KLUK) Record (KLUK)
Temperature  
Mean Temperature 42 °F -  
Max Temperature 51 °F 54 °F 132 °F (1998)
Min Temperature 33 °F 32 °F 16 °F (1959)
Degree Days  
Heating Degree Days 24    
Moisture  
Dew Point 37 °F    
Average Humidity 91    
Maximum Humidity 100    
Minimum Humidity 73    
Precipitation  
Precipitation 1.10 in - - ()
Sea Level Pressure  
Sea Level Pressure 29.77 in    
Wind  
Wind Speed 8 mph (ESE)    
Max Wind Speed 13 mph    
Max Gust Speed 28 mph    
Visibility 6 miles    
Events Rain , Thunderstorm    
Averages and records for this station are not official NWS values.
T = Trace of Precipitation, MM = Missing Value Source: NWS Daily Summary

Daily Weather History Graph

Daily Weather History Graph

Search for Another Location

Airport or City:

Astronomy

Mar. 18, 2013 Rise Set
Actual Time 7:44 AM EDT 7:48 PM EDT
Civil Twilight 7:17 AM EDT 8:15 PM EDT
Nautical Twilight 6:46 AM EDT 8:46 PM EDT
Astronomical Twilight 6:14 AM EDT 9:18 PM EDT
Moon 11:45 AM EDT (3/18) 1:45 AM EDT (3/18)
Length of Visible Light 12h 57m
Length of Day
12h 04m
Waxing Crescent, 40% of the Moon is Illuminated
Mar 18
Waxing Crescent
Mar 19
First Quarter
Mar 27
Full
Apr 3
Last Quarter
Apr 10
New

Hourly Weather History & Observations

Time (EDT) Temp. Windchill Dew Point Humidity Pressure Visibility Wind Dir Wind Speed Gust Speed Precip Events Conditions
12:53 AM 35.1 °F 27.9 °F 30.9 °F 85% 30.01 in 5.0 mi East 9.2 mph - 0.08 in Rain Rain
1:10 AM 35.6 °F 28.0 °F 30.2 °F 81% 29.98 in 4.0 mi ENE 10.4 mph - 0.03 in Rain Rain
1:53 AM 34.0 °F 25.0 °F 32.0 °F 92% 29.96 in 4.0 mi East 12.7 mph - 0.15 in Rain Rain
2:04 AM 33.8 °F 27.0 °F 32.0 °F 93% 29.95 in 5.0 mi ENE 8.1 mph - 0.02 in Rain Light Rain
2:13 AM 33.8 °F 25.3 °F 32.0 °F 93% 29.95 in 6.0 mi East 11.5 mph - 0.02 in Rain Light Rain
2:53 AM 34.0 °F 26.0 °F 32.0 °F 92% 29.92 in 5.0 mi ENE 10.4 mph - 0.05 in Rain Light Rain
3:21 AM 33.8 °F 27.0 °F 32.0 °F 93% 29.90 in 5.0 mi ENE 8.1 mph - 0.03 in Rain Light Rain
3:53 AM 34.0 °F 26.6 °F 32.0 °F 92% 29.90 in 3.0 mi ENE 9.2 mph - 0.14 in Rain Rain
4:24 AM 33.8 °F 28.6 °F 32.0 °F 93% 29.86 in 5.0 mi ENE 5.8 mph - 0.03 in Rain Light Rain
4:53 AM 34.0 °F 28.8 °F 32.0 °F 92% 29.89 in 4.0 mi Variable 5.8 mph - 0.08 in Rain Light Rain
5:09 AM 33.8 °F 26.4 °F 32.0 °F 93% 29.85 in 2.0 mi East 9.2 mph - 0.10 in Rain Heavy Rain
5:18 AM 33.8 °F 25.3 °F 32.0 °F 93% 29.83 in 3.0 mi East 11.5 mph - 0.13 in Rain Heavy Rain
5:22 AM 33.8 °F 25.8 °F 32.0 °F 93% 29.83 in 2.5 mi East 10.4 mph - 0.16 in Rain Heavy Rain
5:42 AM 33.8 °F 29.6 °F 33.8 °F 100% 29.84 in 3.0 mi ENE 4.6 mph - 0.28 in Rain Heavy Rain
5:53 AM 34.0 °F 26.0 °F 32.0 °F 92% 29.82 in 3.0 mi East 10.4 mph - 0.34 in Rain Heavy Rain
5:59 AM 33.8 °F 25.3 °F 32.0 °F 93% 29.81 in 2.5 mi East 11.5 mph - 0.04 in Rain , Thunderstorm Heavy Rain
6:28 AM 33.8 °F 24.8 °F 33.8 °F 100% 29.78 in 3.0 mi ESE 12.7 mph - 0.20 in Rain Rain
6:53 AM 35.1 °F 26.9 °F 33.1 °F 92% 29.74 in 6.0 mi ESE 11.5 mph 23.0 mph 0.25 in Rain Light Rain
7:45 AM 35.6 °F 30.7 °F 33.8 °F 93% 29.76 in 10.0 mi East 5.8 mph - 0.00 in   Overcast
7:53 AM 36.0 °F 32.1 °F 34.0 °F 93% 29.78 in 10.0 mi East 4.6 mph - 0.00 in   Overcast
8:53 AM 37.0 °F 31.6 °F 35.1 °F 93% 29.75 in 10.0 mi East 6.9 mph - N/A   Overcast
9:09 AM 37.4 °F 32.8 °F 35.6 °F 93% 29.74 in 10.0 mi East 5.8 mph - N/A   Overcast
9:49 AM 37.4 °F 32.8 °F 35.6 °F 93% 29.71 in 10.0 mi East 5.8 mph - N/A   Overcast
9:53 AM 37.9 °F 34.4 °F 36.0 °F 93% 29.73 in 10.0 mi East 4.6 mph - N/A   Overcast
10:15 AM 37.4 °F 32.8 °F 35.6 °F 93% 29.71 in 10.0 mi East 5.8 mph - N/A   Overcast
10:34 AM 39.2 °F 34.2 °F 37.4 °F 93% 29.70 in 10.0 mi ESE 6.9 mph - N/A   Overcast
10:53 AM 39.0 °F 34.8 °F 37.0 °F 93% 29.71 in 10.0 mi ESE 5.8 mph - N/A   Overcast
11:07 AM 39.2 °F 37.0 °F 37.4 °F 93% 29.70 in 10.0 mi SE 3.5 mph - N/A   Overcast
11:53 AM 41.0 °F 38.0 °F 39.0 °F 93% 29.70 in 10.0 mi ESE 4.6 mph - 0.00 in   Overcast
12:42 PM 42.8 °F 40.1 °F 41.0 °F 93% 29.67 in 1.8 mi SSE 4.6 mph - 0.01 in Rain Light Rain
12:49 PM 42.8 °F - 41.0 °F 93% 29.67 in 1.5 mi Calm Calm - 0.01 in Rain Light Rain
12:53 PM 43.0 °F 40.3 °F 42.1 °F 97% 29.68 in 1.8 mi South 4.6 mph - 0.01 in Rain Light Rain
1:01 PM 42.8 °F 41.1 °F 42.8 °F 100% 29.68 in 2.5 mi South 3.5 mph - 0.00 in   Overcast
1:21 PM 44.6 °F - 42.8 °F 93% 29.67 in 1.5 mi Calm Calm - 0.00 in   Overcast
1:38 PM 44.6 °F 42.2 °F 44.6 °F 100% 29.67 in 1.8 mi SSW 4.6 mph - 0.00 in   Overcast
1:53 PM 45.0 °F 43.5 °F 44.1 °F 97% 29.68 in 1.5 mi SSW 3.5 mph - 0.00 in   Overcast
1:59 PM 44.6 °F 43.1 °F 44.6 °F 100% 29.66 in 2.0 mi SSW 3.5 mph - N/A   Overcast
2:17 PM 44.6 °F - 44.6 °F 100% 29.66 in 4.0 mi Calm Calm - N/A   Overcast
2:53 PM 46.9 °F - 46.0 °F 97% 29.65 in 10.0 mi SW 6.9 mph - N/A   Overcast
3:10 PM 46.4 °F 43.5 °F 44.6 °F 93% 29.64 in 10.0 mi Variable 5.8 mph - N/A   Overcast
3:32 PM 48.2 °F - 46.4 °F 93% 29.62 in 10.0 mi Variable 5.8 mph - N/A   Overcast
3:53 PM 50.0 °F - 46.0 °F 86% 29.63 in 10.0 mi SSW 9.2 mph - N/A   Overcast
4:53 PM 50.0 °F - 46.0 °F 86% 29.65 in 10.0 mi WSW 8.1 mph - N/A   Overcast
5:13 PM 50.0 °F - 46.4 °F 87% 29.64 in 10.0 mi West 6.9 mph - N/A   Overcast
5:53 PM 50.0 °F - 45.0 °F 83% 29.67 in 10.0 mi West 11.5 mph 19.6 mph N/A   Overcast
6:53 PM 48.9 °F - 43.0 °F 80% 29.70 in 10.0 mi West 12.7 mph 27.6 mph N/A   Overcast
7:53 PM 46.0 °F 41.4 °F 41.0 °F 83% 29.75 in 10.0 mi West 9.2 mph 20.7 mph N/A   Overcast
8:53 PM 44.1 °F 39.0 °F 39.0 °F 82% 29.79 in 10.0 mi WSW 9.2 mph 19.6 mph N/A   Overcast
9:53 PM 43.0 °F 37.7 °F 37.9 °F 82% 29.82 in 10.0 mi WNW 9.2 mph 16.1 mph N/A   Overcast
10:50 PM 41.0 °F 35.2 °F 33.8 °F 76% 29.84 in 10.0 mi West 9.2 mph 20.7 mph N/A   Overcast
10:53 PM 41.0 °F 35.2 °F 34.0 °F 76% 29.86 in 10.0 mi West 9.2 mph 20.7 mph N/A   Overcast
11:53 PM 41.0 °F 35.8 °F 33.1 °F 73% 29.87 in 10.0 mi West 8.1 mph - N/A   Overcast